Regional Weather Roundup
Issued by NWS

Home | Current Version | Previous Version | Graphics & Text | Print | Product List | Glossary Off
Versions: 1 2 3 4 5 6 7 8 9 10 11 12 13 14 15 16 17 18 19 20 21 22 23 24 25 26 27 28 29 30 31 32 33 34 35 36 37 38 39 40 41 42 43 44 45 46 47 48 49 50

750
ASUS43 KDTX 110410
RWRMI
MICHIGAN HOURLY REGIONAL WEATHER ROUNDUP
NATIONAL WEATHER SERVICE DETROIT/PONTIAC MI
ISSUED BY NATIONAL WEATHER SERVICE GRAND RAPIDS MI
1100 PM EST SUN DEC 10 2017

NOTE: "FAIR" INDICATES FEW OR NO CLOUDS BELOW 12,000 FEET WITH NO
SIGNIFICANT WEATHER AND/OR OBSTRUCTION TO VISIBILITY.

MIZ047>049-052>055-059>063-066>070-074>076-081>083-110500-
SOUTHEAST LOWER MICHIGAN

CITY           SKY/WX    TMP DP  RH WIND       PRES   REMARKS
ADRIAN         CLOUDY    27  23  85 NW9       29.99S WCI  18
ALMA           LGT SNOW  25  22  87 N8        30.00R WCI  17
ANN ARBOR      CLOUDY    27  23  85 NW10      29.96F WCI  17
BAD AXE        CLOUDY    24  18  78 N10       29.95R WCI  13
DETROIT CITY   CLOUDY    28  23  81 NW7       29.96S WCI  21
DETROIT        CLOUDY    29  23  78 NW9       29.97S WCI  20
FLINT          CLOUDY    25  22  88 NW12      29.97R WCI  14
GROSSE ILE     CLOUDY    29  24  79 NW12      29.96S WCI  20
HILLSDALE      CLOUDY    27  21  80 NW9G16    29.96S WCI  17
HOWELL         CLOUDY    26  23  90 W8        29.96S WCI  17

CITY           SKY/WX    TMP DP  RH WIND       PRES   REMARKS
JACKSON        CLOUDY    26  20  77 W7        29.97S WCI  18
LANSING        FLURRIES  26  21  81 NW8       29.99R WCI  18
MASON          CLOUDY    27  20  76 NW5       29.97S WCI  21
MONROE         CLOUDY    29  23  77 NW10      29.96S WCI  20
MT. CLEMENS    LGT SNOW  28  26  93 W8        29.94S WCI  19
PONTIAC        LGT SNOW  25  24  96 W9        29.93S WCI  15
PORT HOPE        N/A     25  17  72 NW18G28   29.94R WCI  11
PORT HURON     LGT SNOW  27  23  86 W6        29.94S WCI  20
TRI CITIES     CLOUDY    24  21  88 NW13      29.99R WCI  12
YPSILANTI      CLOUDY    30  25  81 NW9       29.97S WCI  22
$$
MIZ043>046-050>051-056>058-064>065-071>073-077>080-110500-
SOUTHWEST LOWER MICHIGAN

CITY           SKY/WX    TMP DP  RH WIND       PRES   REMARKS
BATTLE CREEK   CLOUDY    27  20  75 NW5       30.00S WCI  22
BENTON HARBOR  CLOUDY    32  20  61 NW8G18    30.04R WCI  25
BIG RAPIDS     CLOUDY    23  15  70 N10       29.99R WCI  12
COLDWATER      CLOUDY    28  23  80 NW5       30.00R WCI  23
HOLLAND        CLOUDY    28  22  78 CALM      30.03R
GRAND RAPIDS   FLURRIES  28  22  78 NW9       30.01R WCI  19
KALAMAZOO      CLOUDY    28  20  71 NW5       30.01S WCI  23
MARSHALL       CLOUDY    26  20  79 W3        29.99R
MOUNT PLEASANT CLOUDY    25  17  71 NW7       29.99R WCI  18
MUSKEGON       CLOUDY    30  19  63 NE9       30.03R WCI  22
STURGIS        CLOUDY    28  23  82 N5        30.01R WCI  23
$$
MIZ016>042-110500-
NORTHERN LOWER MICHIGAN

CITY           SKY/WX    TMP DP  RH WIND       PRES   REMARKS
ALPENA         FLURRIES  16  10  77 W7        29.99R WCI   6
BEAVER ISLAND  CLOUDY    19  10  65 NW9       30.01S WCI   9
BELLAIRE       CLOUDY    19  12  73 CALM      30.02S
CADILLAC       CLOUDY    17   9  69 NW5       29.96R WCI  10
CHARLEVOIX     CLOUDY    20  11  66 N9        30.03F WCI  10
GAYLORD        CLOUDY    13   6  74 CALM      29.95R
HOUGHTON LAKE  CLOUDY    18   8  65 N12       29.98R WCI   5
MANISTEE       CLOUDY    24  15  68 N9        30.02S WCI  14
OSCODA         PTCLDY    17   6  64 NW9       29.98S WCI   5
PELLSTON       CLOUDY    17   8  67 NW9       30.00R WCI   6
TRAVERSE CITY  FLURRIES  23  13  65 NW6       30.01R WCI  16
LUDINGTON      CLOUDY    27  18  69 N7        30.02R WCI  19
$$
MIZ007>008-015-110500-
EASTERN UPPER MICHIGAN

CITY           SKY/WX    TMP DP  RH WIND       PRES   REMARKS
KINROSS        CLOUDY     7   0  72 E3        29.99R
MACKINAC ISLAN CLOUDY    17   6  62 NW9G16    29.98F WCI   5
NEWBERRY       FLURRIES  14  12  92 W3        29.97S
S. S. MARIE    MIX PCPN   7  -2  66 CALM      29.99R
$$
MIZ004>006-011>014-085-110500-
CENTRAL UPPER MICHIGAN

CITY           SKY/WX    TMP DP  RH WIND       PRES   REMARKS
MANISTIQUE     FLURRIES  16   9  73 W8        30.01S WCI   5
ESCANABA       CLOUDY     9   3  77 W5        30.04F WCI   1
MENOMINEE      MOCLDY    16   8  71 NE6       30.05F WCI   7
SAWYER-GWINN   CLOUDY    12   5  74 W6        29.97F WCI   2
$$
MIZ001>003-009>011-084-110500-
WESTERN UPPER MICHIGAN

CITY           SKY/WX    TMP DP  RH WIND       PRES   REMARKS
IRON MOUNTAIN  CLOUDY    14   8  77 CALM      29.98F
HOUGHTON       CLOUDY    12   4  70 S6        29.96F WCI   3
COPPER HARBOR    N/A     16   6  65 CALM      29.99F
IRONWOOD       FLURRIES  14  11  87 SW3       29.97F
$$

ABBREVIATIONS USED IN REMARKS
   TC - TEMPERATURE IN CELSIUS
  WCI - WIND CHILL INDEX
   HX - HEAT INDEX
  VSB - VISIBILITY





USA.gov is the U.S. government's official web portal to all federal, state and local government web resources and services.